Weather History for Laramie, WY

Change the Weather History Date:

Tuesday, February 21, 2012

  Actual Average Record
Temperature  
Mean Temperature 24 °F 25 °F  
Max Temperature 31 °F 36 °F 60 °F (1982)
Min Temperature 17 °F 13 °F -12 °F (1955)
Degree Days  
Heating Degree Days 41 40  
Month to date heating degree days 973 885  
Since 1 July heating degree days 5833 5900  
Cooling Degree Days 0 0  
Month to date cooling degree days 0 0  
Year to date cooling degree days 0 0  
Moisture  
Dew Point 20 °F    
Average Humidity 76    
Maximum Humidity 85    
Minimum Humidity 67    
Precipitation  
Precipitation T in 0.01 in 0.12 in (1962)
Month to date precipitation 0.27 0.24  
Year to date precipitation 0.43 0.51  
Sea Level Pressure  
Sea Level Pressure 29.86 in    
Wind  
Wind Speed 25 mph (WSW)    
Max Wind Speed 40 mph    
Max Gust Speed 47 mph    
Visibility 8 miles    
Events Snow    
T = Trace of Precipitation, MM = Missing Value Source: NWS Daily Summary

Daily Weather History Graph

Daily Weather History Graph

Search for Another Location

Airport:

Trip Planner

Search our weather history database for the weather conditions in past years. The results will help you decide how hot, cold, wet, or windy it might be!

Date:

Astronomy

Feb. 21, 2012 Rise Set
Actual Time 6:49 AM MST 5:43 PM MST
Civil Twilight 6:21 AM MST 6:11 PM MST
Nautical Twilight 5:49 AM MST 6:43 PM MST
Astronomical Twilight 5:17 AM MST 7:15 PM MST
Moon 6:19 AM MST (2/21) 5:53 PM MST (2/21)
Length of Visible Light 11h 49m
Length of Day
10h 53m
Waning Crescent, 0% of the Moon is Illuminated
Feb 21
Waning Crescent
Feb 21
New
Feb 29
First Quarter
Mar 8
Full
Mar 14
Last Quarter

Hourly Weather History & Observations

Time (MST) Temp. Windchill Dew Point Humidity Pressure Visibility Wind Dir Wind Speed Gust Speed Precip Events Conditions
12:53 AM 19.0 °F 3.6 °F 10.0 °F 68% 29.96 in 10.0 mi SSW 18.4 mph - N/A   Overcast
1:53 AM 19.0 °F 2.0 °F 10.0 °F 68% 29.95 in 10.0 mi WSW 23.0 mph 28.8 mph N/A   Overcast
2:53 AM 18.0 °F -0.8 °F 10.9 °F 74% 29.94 in 10.0 mi WSW 27.6 mph - N/A   Clear
3:53 AM 19.0 °F 1.3 °F 10.9 °F 71% 29.93 in 10.0 mi WSW 25.3 mph 32.2 mph N/A   Clear
4:53 AM 19.0 °F 4.5 °F 10.9 °F 71% 29.93 in 10.0 mi WSW 16.1 mph - N/A   Overcast
5:53 AM 19.9 °F 5.2 °F 12.9 °F 74% 29.92 in 10.0 mi SW 17.3 mph - N/A   Overcast
6:53 AM 19.9 °F 4.8 °F 16.0 °F 85% 29.96 in 6.0 mi WSW 18.4 mph - 0.00 in Snow Light Snow
7:53 AM 21.0 °F 5.4 °F 15.1 °F 78% 29.95 in 10.0 mi WSW 20.7 mph - 0.00 in   Scattered Clouds
8:53 AM 24.1 °F 6.9 °F 17.1 °F 75% 29.92 in 4.0 mi WSW 29.9 mph 38.0 mph 0.00 in Snow Blowing Snow
9:53 AM 26.1 °F 9.8 °F 18.0 °F 71% 29.91 in 8.0 mi WSW 28.8 mph 39.1 mph 0.00 in   Overcast
10:53 AM 27.0 °F 11.9 °F 19.0 °F 72% 29.91 in 10.0 mi WSW 25.3 mph - N/A   Overcast
11:53 AM 28.0 °F 13.0 °F 21.0 °F 75% 29.90 in 10.0 mi WSW 26.5 mph 31.1 mph N/A   Overcast
12:53 PM 28.9 °F 15.4 °F 21.9 °F 75% 29.86 in 10.0 mi WSW 21.9 mph - N/A   Overcast
1:53 PM 28.9 °F 14.8 °F 21.0 °F 72% 29.86 in 10.0 mi WSW 24.2 mph - N/A   Overcast
2:53 PM 28.4 °F 15.4 °F 21.2 °F 74% 29.80 in 10.0 mi WSW 19.6 mph 32.2 mph N/A   Mostly Cloudy
3:53 PM 30.0 °F 16.0 °F 21.9 °F 72% 29.85 in 10.0 mi West 25.3 mph - N/A   Mostly Cloudy
4:53 PM 30.2 °F 16.2 °F 21.2 °F 69% 29.80 in 10.0 mi WSW 25.3 mph 32.2 mph N/A   Partly Cloudy
5:53 PM 27.0 °F 11.9 °F 21.9 °F 81% 29.85 in 9.0 mi WSW 25.3 mph 35.7 mph N/A   Clear
6:53 PM 27.0 °F 10.0 °F 23.0 °F 85% 29.85 in 3.0 mi WSW 33.4 mph 42.6 mph 0.00 in   Clear
7:09 PM 26.6 °F 9.1 °F 24.8 °F 93% 29.77 in 1.8 mi WSW 35.7 mph 43.7 mph 0.00 in   Clear
7:25 PM 26.6 °F 9.6 °F 24.8 °F 93% 29.77 in 2.5 mi WSW 33.4 mph - 0.00 in   Clear
7:35 PM 28.4 °F 12.3 °F 24.8 °F 86% 29.77 in 4.0 mi West 32.2 mph 41.4 mph 0.00 in   Clear
7:53 PM 28.0 °F 12.0 °F 24.1 °F 85% 29.83 in 5.0 mi West 31.1 mph 40.3 mph 0.00 in   Clear
8:45 PM 28.4 °F 11.8 °F 24.8 °F 86% 29.77 in 2.5 mi West 34.5 mph 44.9 mph 0.00 in   Overcast
8:53 PM 28.0 °F 11.5 °F 25.0 °F 88% 29.82 in 4.0 mi West 33.4 mph - 0.00 in   Overcast
9:53 PM 28.9 °F 14.5 °F 25.0 °F 85% 29.79 in 10.0 mi West 25.3 mph 32.2 mph 0.00 in   Overcast
10:53 PM 28.9 °F 12.8 °F 25.0 °F 85% 29.76 in 6.0 mi West 33.4 mph 38.0 mph 0.00 in   Mostly Cloudy
11:53 PM 30.0 °F 14.0 °F 26.1 °F 85% 29.74 in 4.0 mi West 34.5 mph 40.3 mph 0.00 in   Overcast